User: anonymous   Login
Location: City of Moscow
(46.7306°N, 116.9989°W)
Time: 16:52:11
(UTC+00:00)
Language:

SKYMED 2 - Orbit

View from above orbital plane
View from above orbital plane
View from above satellite
View from above satellite

Ground track
Ground track

The orbit is defined by the following mean orbital elements,

1 32376U          26039.48596743 +.00000000 +00000-0 +96527-4 0 00003
2 32376  97.8842 224.9479 0001522  82.0730 278.0655 14.82156833    02
Epoch (UTC): 08 February 2026 11:39:47
Eccentricity: 0.0001522
inclination: 97.8842°
perigee height: 621 km
apogee height: 624 km
right ascension of ascending node: 224.9479°
argument of perigee: 82.0730°
revolutions per day: 14.82156833
mean anomaly at epoch: 278.0655°

The dashed part of the orbit path shows where the satellite is in the earth's shadow,  

DLR